Wind_Speed
16 15 16 18 20 22 20 22 24 23 23 24 23 22 23 20 21 20 19 19 18 19 17 19 18 17 18 15 15 15 15 15 14 14 14 14 15 15 15 13 14 13 13
17 19 20 21 17 20 21 25 24 24 25 26 24 25 25 25 21 21 21 21 21 21 19 19 21 20 19 19 19 18 18 18 17 16 17 16 15 15 15 16 17 16 15
18 18 19 21 24 25 20 23 23 27 26 26 26 27 26 26 24 25 24 25 23 21 20 19 21 22 21 20 19 20 21 20 19 19 18 17 17 17 18 19 19 19 18
19 20 21 21 21 22 23 23 22 24 25 28 27 30 32 29 28 27 23 22 26 24 20 20 21 22 24 22 21 21 20 21 23 23 22 21 22 21 20 20 20 19 18
18 19 20 21 22 23 23 22 23 21 23 24 27 28 29 30 29 30 30 28 20 24 26 22 21 20 20 22 23 24 24 23 24 24 25 25 25 24 23 22 21 19 19
19 22 24 23 22 24 25 24 25 26 27 26 25 25 27 29 30 32 30 26 28 28 23 25 25 26 23 23 23 23 25 27 27 28 29 29 29 29 28 25 24 22 21
20 20 22 24 24 25 25 25 25 25 25 22 22 22 23 27 30 32 31 30 29 31 34 34 32 33 30 27 27 27 23 23 27 28 32 33 32 32 31 30 27 24 22
15 18 20 20 19 22 23 24 25 25 26 23 21 17 4 9 17 24 29 30 33 34 32 33 36 36 37 39 37 33 30 30 30 28 30 34 35 35 33 33 31 28 25
19 18 18 17 19 20 23 23 24 23 22 20 20 15 3 4 2 14 23 25 24 25 26 28 29 34 37 40 35 34 35 33 29 31 27 29 34 36 35 34 33 32 31
18 19 17 17 17 18 20 23 22 21 21 19 21 23 27 20 3 4 6 7 15 20 20 21 22 24 27 31 36 37 35 37 38 35 35 30 30 31 33 35 34 34 34
14 16 16 15 16 17 19 19 19 20 23 21 20 21 22 22 22 7 7 7 17 15 16 17 19 19 21 21 23 24 24 24 28 32 33 32 31 31 31 34 35 36 37
16 17 16 17 20 19 20 21 21 23 23 23 24 26 22 11 9 8 4 5 8 19 22 21 16 17 18 19 21 20 20 21 22 24 25 28 32 33 32 33 35 37 36
19 20 19 18 18 19 21 20 20 22 23 23 23 25 25 21 19 20 16 5 4 14 14 15 18 19 18 18 20 21 20 21 21 19 22 24 27 30 34 36 35 34 36
22 22 21 19 19 18 19 19 20 20 20 20 20 20 22 19 18 18 18 8 5 3 16 16 15 18 18 20 21 20 18 15 18 22 23 25 27 29 31 33 36 39 38
20 20 20 19 18 17 16 19 18 17 17 17 16 16 16 16 18 20 21 21 9 3 3 12 13 12 12 11 8 7 9 14 18 23 26 27 29 29 29 31 33 34 36
19 19 16 15 17 17 15 15 16 16 15 15 16 16 16 17 18 19 20 21 18 13 3 6 16 14 15 18 17 15 16 17 18 19 22 24 27 29 30 32 33 34 34
16 17 17 16 15 15 14 14 14 13 13 14 15 16 16 15 16 16 14 12 12 13 4 12 12 13 11 13 16 16 15 16 18 19 21 22 25 27 27 29 32 32 33
14 15 16 15 14 14 13 15 15 14 14 16 17 13 8 9 8 10 7 7 6 7 7 4 11 13 14 13 8 9 12 15 20 20 20 19 20 24 26 28 29 30 30
13 13 13 14 15 14 14 13 13 14 13 13 13 14 14 13 12 11 9 8 8 9 9 9 11 10 10 19 23 21 18 18 12 14 22 24 21 21 20 22 22 22 24
11 12 12 11 11 11 10 15 14 13 12 11 11 10 10 10 11 13 13 13 14 15 14 15 16 15 17 19 16 13 19 21 25 21 12 12 14 11 11 13 14 14 17
9 9 10 9 10 8 9 13 12 10 9 10 9 8 9 8 8 9 9 10 10 11 11 11 10 11 7 8 8 11 11 19 15 9 16 13 14 11 10 11 13 13 14
7 9 8 8 8 8 10 10 9 6 6 5 6 6 5 6 7 6 5 6 6 5 6 5 5 4 5 7 10 11 11 8 4 8 20 11 9 7 7 9 10 10 12
10 10 9 8 8 8 10 8 7 6 6 6 5 5 4 6 8 6 4 6 6 6 5 4 2 3 3 6 8 9 8 8 7 16 16 7 8 7 6 7 8 8 13
13 12 12 11 11 10 12 10 7 5 6 5 6 5 4 6 6 4 3 5 5 5 5 4 3 2 2 6 8 9 11 12 13 6 11 4 10 13 12 10 9 12 14
15 14 14 15 14 13 13 13 10 7 7 6 8 7 5 6 5 3 3 4 3 4 5 5 5 5 3 6 8 6 6 8 2 2 8 7 8 15 11 7 8 12 12
17 16 17 17 16 17 15 14 12 9 8 9 8 8 8 8 4 1 1 3 5 5 5 6 4 3 4 4 6 7 5 3 4 3 7 11 8 10 7 3 10 13 14
Wind_Direction
284 287 297 288 282 278 269 263 256 249 250 248 241 238 246 245 242 243 246 249 250 246 248 238 231 234 238 243 244 247 253 259 260 263 267 270 273 275 278 284 280 283 279
289 285 282 284 294 292 291 277 270 262 257 252 252 244 241 249 251 245 244 247 251 248 250 247 239 233 235 238 241 244 248 250 255 261 269 275 280 281 281 281 278 278 281
288 287 286 284 279 275 290 287 282 272 270 263 253 252 247 244 245 245 244 242 245 250 246 251 247 240 237 239 245 251 251 255 259 261 266 275 277 277 278 284 286 282 278
289 291 288 285 285 282 282 283 289 284 280 271 269 263 260 257 250 245 246 246 241 240 242 249 251 248 243 241 244 251 254 259 260 260 263 264 269 274 278 281 283 282 277
293 294 296 290 285 284 283 282 282 285 289 286 278 269 263 261 261 257 252 247 246 238 241 238 243 244 244 244 245 251 251 252 257 261 264 262 264 265 269 274 277 278 278
293 292 297 298 297 287 283 278 276 275 274 277 286 281 275 273 266 257 261 260 251 239 235 235 235 232 231 235 241 250 249 250 254 257 260 263 262 262 264 264 267 271 271
304 305 304 302 299 296 294 287 278 278 277 276 279 279 275 275 268 255 268 262 257 256 244 241 235 234 235 240 257 249 251 259 262 261 259 261 264 266 266 266 263 261 262
310 305 303 303 305 302 297 294 290 291 275 272 270 282 282 275 264 261 257 255 253 252 250 246 242 239 242 254 268 252 249 259 261 260 261 262 263 265 266 267 266 263 259
305 309 316 305 297 293 293 291 292 291 297 284 266 255 291 238 280 258 250 246 248 249 250 254 257 255 257 256 258 252 263 257 249 257 264 266 263 261 263 262 263 263 264
307 304 314 307 300 293 287 286 285 284 287 285 280 266 272 281 287 313 293 287 262 248 251 253 255 260 263 260 258 260 264 259 259 259 261 259 265 263 261 262 262 261 262
314 301 302 300 296 293 291 287 287 288 288 289 286 275 269 277 272 228 275 288 280 259 262 262 262 255 263 264 264 266 270 270 272 262 261 261 263 264 261 262 262 261 261
310 319 316 305 303 306 301 295 293 287 285 286 281 274 274 263 278 272 256 261 258 271 271 273 261 261 267 265 275 280 284 286 281 278 273 268 266 268 271 268 266 264 262
319 311 309 309 308 307 301 301 297 290 286 284 283 270 263 272 282 283 290 291 281 288 280 277 279 274 274 262 264 262 267 271 281 283 289 287 277 275 276 275 272 270 270
309 299 306 309 310 308 307 298 300 295 291 290 288 276 265 265 272 284 281 270 287 300 297 299 296 280 270 269 268 273 264 271 281 290 294 297 296 292 290 285 281 276 273
307 313 309 311 314 315 313 308 305 301 297 293 295 285 275 268 267 267 273 279 267 272 275 288 300 306 324 345 339 312 287 287 294 295 297 298 296 296 297 295 293 289 287
312 315 319 323 323 322 319 314 309 310 300 296 290 285 284 281 276 265 265 269 270 265 258 277 291 295 294 295 302 304 305 306 306 301 298 299 299 299 299 298 296 297 298
317 324 326 327 335 343 344 330 321 311 302 297 296 283 278 282 282 279 283 284 283 283 254 288 290 298 306 311 304 305 302 303 306 309 309 301 296 297 300 300 298 296 292
320 323 330 332 335 333 332 342 339 339 345 338 336 355 340 323 315 298 302 304 318 322 324 292 301 301 304 306 315 315 312 305 314 316 300 301 309 307 303 302 303 301 296
317 323 329 333 335 338 343 337 342 336 321 321 322 328 331 343 350 347 342 332 321 314 309 308 300 318 323 319 324 320 317 315 311 309 307 308 310 310 317 314 308 307 304
322 330 330 327 328 337 335 339 333 327 332 328 329 330 329 332 326 320 319 326 327 324 320 321 318 315 307 311 311 336 322 321 318 315 329 330 335 341 339 342 340 346 337
323 334 335 337 340 343 328 334 335 334 335 332 337 334 332 324 326 321 314 312 310 311 311 307 300 311 325 355 0 337 326 326 328 345 350 341 346 339 342 357 5 1 2
305 313 316 322 327 332 331 337 335 335 332 332 336 330 330 336 325 323 313 317 317 327 324 338 345 350 10 1 346 350 344 348 327 326 346 337 347 15 10 5 10 13 14
293 292 291 296 302 305 315 338 329 330 331 331 326 333 349 338 336 342 309 335 353 13 17 354 33 27 25 350 332 327 321 312 291 311 332 310 330 329 340 338 10 1 1
275 279 281 280 283 289 297 315 313 304 308 320 327 336 342 330 337 1 326 341 349 3 30 39 52 49 358 331 322 302 302 299 300 272 342 290 326 317 309 304 309 336 341
272 273 276 280 284 287 289 301 305 290 296 301 305 309 315 303 333 340 335 324 325 330 337 354 3 2 33 16 4 351 2 1 325 324 358 338 325 319 310 323 333 336 344
270 275 275 275 277 281 284 282 293 272 271 276 281 287 301 324 327 7 238 265 270 285 302 318 319 327 322 354 5 17 22 359 327 308 2 350 334 349 320 313 335 347 359
Height
820 819 819 818 816 815 815 814 814 813 812 812 812 812 813 813 813 814 815 815 815 816 818 819 820 822 823 825 826 826 827 827 828 828 828 828 829 828 828 828 828 827 828
818 817 816 815 814 813 811 811 810 809 808 809 808 808 808 808 809 810 811 811 812 812 813 814 815 817 819 820 821 822 822 823 824 825 825 825 825 825 826 825 825 824 824
815 814 813 812 811 810 809 807 805 805 804 803 803 803 803 803 804 805 806 806 807 808 809 810 810 812 813 815 816 817 818 818 819 820 820 821 821 821 822 822 821 821 821
813 812 810 809 808 807 805 804 803 801 799 799 798 798 798 799 798 799 800 801 802 802 804 805 806 806 807 809 810 811 812 813 814 815 816 816 817 816 817 817 817 817 817
809 808 806 805 805 803 802 801 800 799 797 795 794 792 792 792 793 794 794 795 796 797 798 799 800 801 801 802 801 803 804 805 807 809 809 810 811 811 811 811 812 812 812
805 804 802 801 801 800 799 798 796 795 794 793 790 788 786 785 786 786 787 789 789 790 791 793 793 794 795 795 795 795 795 796 799 801 803 804 804 805 805 804 804 805 806
804 802 801 800 799 797 796 795 794 792 790 789 787 783 781 781 780 781 782 781 781 783 783 785 787 788 788 789 791 791 791 793 793 792 795 797 798 800 800 800 798 796 798
802 800 799 797 796 794 793 792 791 788 786 787 785 783 779 775 774 773 773 773 773 773 775 778 781 781 782 783 783 785 786 785 786 788 789 790 792 793 794 795 794 792 790
800 798 796 794 792 791 789 788 787 785 783 782 783 783 779 774 769 766 766 767 769 769 771 773 775 776 776 777 777 778 779 780 780 782 783 784 784 786 787 787 787 788 787
796 795 794 791 789 787 785 784 783 782 781 779 779 777 775 774 773 770 764 765 765 766 768 768 769 770 770 770 771 772 773 774 776 777 778 779 780 781 781 780 780 781 781
794 793 791 789 787 785 783 781 780 779 777 776 776 775 772 770 770 769 768 763 763 764 763 764 765 765 765 766 766 766 767 768 769 771 773 774 773 774 774 773 773 773 773
791 790 788 787 784 781 779 777 775 774 773 773 772 772 770 769 767 766 765 762 761 761 761 761 762 763 763 763 763 763 763 765 766 767 768 768 769 769 768 767 766 765 766
789 788 787 784 781 778 775 773 772 770 769 768 767 766 766 765 765 764 763 762 760 759 759 759 759 759 758 758 759 759 760 762 762 763 763 763 763 763 762 761 760 759 758
788 787 784 781 779 776 773 771 769 766 765 764 762 761 762 761 762 762 761 761 760 759 758 757 757 756 755 754 754 754 755 757 758 758 758 757 756 755 755 753 752 751 751
788 785 782 779 777 774 772 769 766 763 762 760 759 758 757 757 758 758 758 758 757 759 757 755 755 754 753 753 753 753 753 754 754 754 754 752 751 749 748 747 746 744 742
786 783 780 777 775 772 770 767 764 762 760 759 758 756 755 755 754 754 754 754 753 753 755 753 752 752 751 750 750 750 749 750 750 751 749 747 746 744 742 741 739 737 735
784 781 778 776 773 770 768 766 763 761 760 758 756 754 752 752 752 751 751 751 750 750 751 750 750 749 748 747 747 747 747 746 746 746 745 742 740 738 735 734 731 729 727
783 780 777 774 772 770 767 765 763 761 759 757 754 752 751 750 749 749 749 748 748 748 749 748 746 746 745 745 744 743 743 743 743 742 738 736 734 730 729 727 724 722 720
781 778 776 773 771 769 767 765 763 760 758 757 755 753 752 750 749 748 747 747 747 746 746 745 744 744 743 743 741 740 740 740 739 737 735 732 730 726 721 719 717 716 714
779 776 774 772 770 767 765 763 761 759 758 757 755 753 752 751 750 749 748 748 747 746 746 745 744 743 743 741 740 739 737 736 734 733 733 730 727 725 722 719 714 712 709
777 775 773 770 768 765 763 761 759 758 757 755 754 753 752 751 750 749 748 747 747 746 745 744 743 742 741 740 740 741 739 735 734 732 730 728 727 725 722 721 718 715 712
773 772 770 768 766 764 762 760 758 756 755 753 752 751 750 749 748 747 746 745 744 743 743 742 742 741 742 742 741 740 738 737 734 731 729 728 726 725 723 721 719 718 714
771 770 768 767 765 763 760 758 757 755 754 753 751 749 748 748 748 747 745 744 743 742 741 741 741 742 742 742 741 739 739 738 737 733 730 727 725 724 722 720 719 716 713
766 765 764 762 761 759 758 756 754 753 752 751 750 749 747 746 745 745 745 745 744 744 743 742 743 743 743 742 741 739 738 736 734 732 732 729 724 722 720 719 717 716 713
763 762 762 760 759 758 756 755 753 752 752 751 749 748 747 746 745 745 745 745 745 745 746 745 744 743 742 741 740 738 736 735 733 733 732 731 727 723 718 716 716 714 712
759 759 757 756 755 754 753 751 751 750 750 750 749 748 747 746 744 743 743 744 744 744 745 745 745 744 742 741 739 738 737 737 735 732 732 731 727 726 720 715 714 713 711